This is the latest recevied weather packets stored in our database for station/object W1CAT. If no packets are shown the sender has not sent any weather packets the latest 10 day(s).
| Time | Temp. | Humidity | Pressure | Rain* | Wind** | Luminosity | Snow |
|---|---|---|---|---|---|---|---|
| 1777674937 | 10.56° C | 34% | - | 0 mm | - | - | - |
| 1777674633 | 11.67° C | 33% | - | 0 mm | - | - | - |
| 1777674331 | 12.78° C | 34% | - | 0 mm | - | - | - |
| 1777674027 | 11.67° C | 33% | - | 0 mm | - | - | - |
| 1777673723 | 12.22° C | 32% | - | 0 mm | - | - | - |
| 1777673421 | 11.67° C | 35% | - | 0 mm | - | - | - |
| 1777673119 | 10.56° C | 35% | - | 0 mm | - | - | - |
| 1777672815 | 10.56° C | 34% | - | 0 mm | - | - | - |
| 1777672511 | 10.56° C | 32% | - | 0 mm | - | - | - |
| 1777672207 | 10.56° C | 36% | - | 0 mm | - | - | - |
| 1777671902 | 11.67° C | 34% | - | 0 mm | - | - | - |
| 1777671598 | 11.11° C | 40% | - | 0 mm | - | - | - |
| 1777671295 | 12.78° C | 39% | - | 0 mm | - | - | - |
| 1777670990 | 12.22° C | 35% | - | 0 mm | - | - | - |
| 1777670688 | 10.56° C | 45% | - | 0 mm | - | - | - |
| 1777670385 | 10° C | 39% | - | 0 mm | - | - | - |
| 1777670082 | 11.67° C | 40% | - | 0 mm | - | - | - |
| 1777669780 | 12.78° C | 38% | - | 0 mm | - | - | - |
| 1777669476 | 12.78° C | 38% | - | 0 mm | - | - | - |
| 1777669172 | 12.22° C | 41% | - | 0 mm | - | - | - |
| 1777668870 | 11.67° C | 41% | - | 0 mm | - | - | - |
| 1777668567 | 11.11° C | 42% | - | 0 mm | - | - | - |
| 1777668263 | 10.56° C | 40% | - | 0 mm | - | - | - |
| 1777667959 | 10° C | 47% | - | 0 mm | - | - | - |
| 1777667656 | 10° C | 42% | - | 0 mm | - | - | - |
* Rain latest hour (hover to see other rain measurements)
** Current wind speed in m/s (hover to see current wind gust speed)